Location: Uzundamlar
(36.6000°N, 30.3000°E)
Time: 19:03:29
(UTC+00:00)

Daily predictions for brighter satellites

Satellite Brightness Start Highest point End
(mag) Time Altitude Azimuth Time Altitude Azimuth Time Altitude Azimuth
Abrixas rocket 1.8 16:03:56 10° NW 16:06:46 73° NE 16:09:34 10° ESE
RESURS DK-1 3.7 16:04:35 10° SSE 16:07:38 20° ESE 16:10:41 10° ENE
SWAS 4.4 16:04:07 10° NNW 16:08:24 82° ENE 16:12:39 10° SSE
CZ-2D R/B 3.5 16:07:33 10° SSE 16:11:16 46° ENE 16:15:00 10° N
Cosmos 1464 Rocket 4.0 16:05:19 10° S 16:11:28 89° E 16:17:42 10° N
Cosmos 2082 Rocket 4.1 16:12:31 10° NE 16:13:02 10° NE 16:13:33 10° NE
Cosmos 1939 Rocket 2.9 16:09:02 10° SSE 16:13:09 71° ENE 16:17:17 10° N
COSMOS 2455 3.8 16:11:28 10° SSE 16:16:11 25° ESE 16:20:57 10° NE
Cosmos 1844 Rocket 4.4 16:13:47 10° SW 16:18:51 36° WNW 16:23:59 10° N
CZ-2C R/B 3.7 16:16:23 10° SE 16:21:26 39° ENE 16:26:41 10° N
USA 238 DEB 4.2 16:15:34 10° NW 16:22:52 72° WSW 16:30:23 10° SSE
USA 238 4.2 16:15:41 10° NW 16:22:59 73° WSW 16:30:30 10° SSE
Okean-O 2.6 16:18:45 10° SSE 16:23:06 63° ENE 16:27:29 10° N
H-2A R/B 2.9 16:19:34 10° SE 16:23:50 28° ENE 16:28:13 10° N
X-37B 2.8 16:22:44 10° SSE 16:23:57 12° SE 16:24:52 11° ESE
Cosmos 2151 Rocket 4.0 16:20:31 10° SSW 16:24:57 71° W 16:29:29 10° N
Cosmos 2285 Rocket 4.3 16:20:04 10° SSW 16:26:20 73° WNW 16:32:43 10° NNE
USA 215 4.2 16:21:02 10° SSE 16:27:18 48° SW 16:33:36 10° NW
COSMO-SKYMED 1 3.5 16:23:24 10° N 16:27:38 52° WNW 16:31:50 10° SSW
Gbstr 26 Del rocket 4.1 16:32:10 10° SW 16:38:23 87° SE 16:45:59 10° NE
Cosmos 2278 Rocket 2.2 16:32:57 10° S 16:38:30 60° ESE 16:44:03 10° NNE
ATLAS 5 CENTAUR R/B 3.9 16:36:29 10° NW 16:40:26 56° SW 16:54:19 10° SSE
KORONAS-FOTON 3.7 16:37:42 10° N 16:41:37 71° E 16:45:29 10° SSE
Cosmos 1805 3.2 16:38:39 10° S 16:42:33 89° W 16:46:29 10° N
Cosmos 1025 Rocket 4.1 16:38:20 10° NNW 16:42:36 50° W 16:46:49 10° SSW
CSL-04 Rocket 3.8 16:41:07 10° SSE 16:46:26 56° ENE 16:51:51 10° N
Nadezhda 4 Rocket 4.0 16:44:08 10° N 16:50:16 84° W 16:56:26 10° S
Okean 1 Rocket 3.2 16:47:12 10° S 16:51:42 81° W 16:56:11 10° N
Cosmos 1833 Rocket 3.3 16:46:43 10° N 16:51:54 36° ENE 16:54:51 22° ESE
CSL-04 Debris 4.1 16:46:49 10° SSE 16:52:08 67° ENE 16:57:29 10° N
Milstar 3 Cent rocket 3.6 16:42:17 10° WSW 16:52:33 46° S 16:56:37 20° ESE
HJ-1C 3.4 16:52:32 17° SSE 16:54:49 51° ENE 16:58:03 10° N
COSMOS 2406 3.3 16:52:25 10° NNW 16:57:59 55° ENE 17:02:15 17° SE
Cosmos 1340 Rocket 2.6 16:54:26 10° S 16:58:22 71° E 17:02:22 10° NNE
CZ-4C R/B 1.8 16:55:51 10° SSW 17:00:29 63° ESE 17:05:53 10° NE
YAOGAN 1 3.0 16:57:13 10° S 17:01:29 64° WSW 17:05:47 10° NNW
BREEZE-M TANK 4.4 16:56:20 10° W 17:07:17 45° NNW 17:10:08 18° NE
Lacrosse 4 Rocket 2.4 17:05:33 10° N 17:08:55 28° NE 17:08:55 28° NE
Lacrosse 5 rocket 3.5 17:08:15 10° N 17:10:59 16° NNE 17:11:20 16° NE
Cosmos 1674 4.1 17:08:29 10° NNW 17:12:05 40° W 17:15:38 10° SSW
H-2A R/B 3.3 17:10:59 10° SW 17:12:37 19° S 17:12:37 19° S
ARGOS 3.1 17:09:22 12° SSE 17:14:17 66° ENE 17:19:38 10° N
CZ-4 R/B 3.2 17:11:57 10° SSW 17:15:45 33° W 17:19:30 10° NNW
OAO 1 4.5 17:14:35 10° W 17:20:04 75° S 17:21:53 43° ESE
APEX 3.0 17:17:54 10° SSW 17:20:55 70° WNW 17:23:48 15° NNE
Meteor 1-24 Rocket 3.7 17:16:20 10° N 17:22:06 83° E 17:28:02 10° S
CENTAUR R/B 4.1 17:15:20 10° NW 17:23:20 48° WSW 17:31:41 10° S
CZ-2C R/B 2.7 17:18:11 10° NNE 17:23:43 57° E 17:29:13 10° S
Cosmos 1892 Rocket 3.5 17:19:58 10° N 17:24:16 57° E 17:24:21 57° E
MOS 1 Rocket 3.8 17:21:25 10° N 17:25:36 54° WNW 17:29:48 10° SSW
Ariane Rocket 3.2 17:26:01 46° E 17:26:19 46° ENE 17:31:10 10° N
USA 186 4.1 17:32:31 16° N 17:32:31 16° N 17:33:19 10° N
Cosmos 1470 3.9 17:32:51 32° NNE 17:32:51 32° NNE 17:35:00 10° N
Cosmos 1626 2.6 17:29:00 10° NNW 17:32:38 57° W 17:33:51 36° SSW
MetOp-A 4.4 17:35:32 46° ENE 17:35:32 46° ENE 17:40:22 10° N
SL-14 R/B 3.7 17:33:54 10° NNW 17:37:51 62° W 17:39:01 41° SSW
ATLAS 3B R/B 2.7 17:34:49 10° NNW 17:41:49 85° ENE 17:44:34 42° SE
SL-08 RB Rocket 3.6 17:44:52 78° SSW 17:45:08 83° WSW 17:49:40 10° NNW
RESURS DK-1 4.4 17:41:51 10° WSW 17:45:26 28° WNW 17:49:04 10° N
Meteor 2-10 4.2 17:54:15 63° NNE 17:54:15 63° NNE 17:58:44 10° N
Cosmos 2082 Rocket 2.2 17:52:27 10° NNW 17:57:36 69° NNE 17:57:36 69° NNE
X-37B 3.8 17:57:01 10° WSW 17:57:11 11° WSW 17:57:11 11° WSW
COSMOS 2455 3.8 17:56:00 10° SW 18:01:45 47° WNW 18:07:34 10° NNE
H-2A R/B 3.8 17:58:49 10° SSW 18:03:09 29° W 18:07:38 10° NW
BREEZE-M DEB (TANK) 4.3 18:00:23 10° WNW 18:04:44 58° SW 18:09:06 35° SSE
IRS-1A Rocket 4.4 18:05:59 63° SSW 18:06:52 75° WSW 18:12:41 10° NNW
Cosmos 1455 Rocket 4.4 18:03:53 10° SSW 18:07:58 38° W 18:12:02 10° N
Cosmos 909 Rocket 4.1 18:08:32 10° NNW 18:14:04 65° NNE 18:14:04 65° NNE
Cosmos 1655 Rocket 4.1 18:13:44 10° N 18:19:16 70° N 18:19:16 70° N
Cosmos 1833 Rocket 4.3 18:30:55 10° NW 18:35:37 28° WSW 18:36:36 26° WSW
Lacrosse 4 Rocket 4.4 18:44:32 10° WNW 18:45:16 13° WNW 18:45:16 13° WNW
CZ-4C R/B 4.5 18:46:01 10° W 18:49:36 19° NW 18:53:36 10° N
Lacrosse 5 rocket 4.3 18:46:11 10° NW 18:46:58 15° NW 18:46:58 15° NW
